Flag for Tajikistan Weather past 2 weeks in Dushanbe, Tajikistan

Now
93 °F

Fog.


Feels Like: 89 °F
Forecast: 70 / 98 °F
Wind: 3 mph from South

Location: Dushanbe Airport

Current Time: Jul 24, 2014 at 1:47:27 PM

Latest Report: Jul 24, 2014 at 1:00 PM


Visibility: 2 mi

Pressure: 29.77 "Hg

Humidity: 19%

Dew point: 45 °F

Location of DushanbeLocation

Historic Weather in Dushanbe — Graph

°F

Dushanbe temperature yesterday

Maximum temperature yesterday: 104 °F (at 3:00 PM)
Minimum temperature yesterday: 72 °F (at 6:00 AM)
Average temperature yesterday: 88 °F

Past Weeks' High & Low Weather Summary

 TemperatureHumidityPressure
High104 °F (Jul 22, 4:30 PM)64% (Jul 16, 6:00 AM)29.80 "Hg (Jul 16, 6:00 AM)
Low64 °F (Jul 18, 4:30 AM)8% (Jul 11, 4:30 PM)29.56 "Hg (Jul 22, 4:00 PM)
Average83 °F29%29.71 "Hg
* Reported Jul 9 1:00 PM — Jul 24 1:00 PM, Dushanbe, Weather by CustomWeather, © 2014

Note: Actual official high and low records may vary slightly from our data, if they occured in-between our weather recording intervals... More about our weather records

Advertising

Dushanbe weather history for July 14, 2014

 ConditionsComfort  
Time TempWeatherWind HumidityBarometerVisibility
12:00 AM
Jul 14
75 °FClear.3 mph41%29.77 "Hg6 mi
12:30 AM75 °FClear.No wind36%29.77 "HgN/A
1:00 AM75 °FClear.1 mph36%29.77 "HgN/A
1:30 AM75 °FClear.No wind39%29.77 "HgN/A
2:00 AM75 °FClear.No wind41%29.77 "HgN/A
2:30 AM72 °FClear.1 mph47%29.77 "HgN/A
3:00 AM70 °FClear.1 mph46%29.77 "HgN/A
3:30 AM70 °FClear.1 mph50%29.77 "HgN/A
4:00 AM70 °FClear.No wind46%29.77 "HgN/A
4:30 AM70 °FClear.No wind46%29.77 "HgN/A
5:00 AM68 °FClear.1 mph49%29.77 "HgN/A
5:30 AM70 °FSunny.No wind50%29.80 "HgN/A
6:00 AM70 °FSunny.No wind50%29.80 "HgN/A
6:30 AM72 °FSunny.1 mph50%29.80 "HgN/A
7:00 AM73 °FPassing clouds.1 mph53%29.80 "Hg5 mi
7:30 AM77 °FSunny.1 mph39%29.80 "HgN/A
8:00 AM77 °FSunny.1 mph47%29.80 "HgN/A
8:30 AM82 °FSunny.No wind37%29.80 "HgN/A
9:00 AM84 °FSunny.1 mph29%29.80 "HgN/A
9:30 AM88 °FSunny.1 mph25%29.80 "HgN/A
10:00 AM90 °FSunny.1 mph24%29.80 "HgN/A
10:30 AM90 °FPassing clouds.3 mph27%29.80 "HgN/A
11:00 AM91 °FPassing clouds.3 mph21%29.80 "HgN/A
11:30 AM93 °FPassing clouds.3 mph16%29.80 "HgN/A
12:00 PM93 °FPassing clouds.1 mph19%29.77 "HgN/A
12:30 PM95 °FPassing clouds.1 mph16%29.77 "HgN/A
1:00 PM95 °FPassing clouds.3 mph15%29.77 "HgN/A
1:30 PM95 °FPassing clouds.3 mph16%29.77 "HgN/A
2:00 PM97 °FPassing clouds.1 mph19%29.74 "HgN/A
2:30 PM97 °FPassing clouds.3 mph12%29.74 "HgN/A
3:00 PM97 °FPassing clouds.1 mph11%29.74 "HgN/A
3:30 PM99 °FPassing clouds.3 mph15%29.71 "HgN/A
4:00 PM97 °FPassing clouds.1 mph13%29.71 "HgN/A
4:30 PM97 °FPassing clouds.1 mph17%29.71 "HgN/A
5:00 PM95 °FSunny.8 mph16%29.71 "HgN/A
5:30 PM95 °FSunny.10 mph16%29.68 "HgN/A
6:00 PM93 °FSunny.10 mph16%29.68 "HgN/A
6:30 PM91 °FSunny.8 mph23%29.71 "HgN/A
7:00 PM90 °FSunny.8 mph24%29.71 "HgN/A
7:30 PM90 °FPassing clouds.8 mph24%29.71 "HgN/A
8:00 PM88 °FPassing clouds.6 mph22%29.71 "HgN/A
8:30 PM86 °FClear.1 mph25%29.71 "HgN/A
9:00 PM82 °FClear.1 mph32%29.74 "Hg5 mi
9:30 PM82 °FClear.1 mph32%29.74 "Hg5 mi
10:00 PM81 °FClear.1 mph37%29.74 "HgN/A
10:30 PM75 °FClear.6 mph44%29.74 "Hg6 mi
11:00 PM77 °FClear.1 mph39%29.74 "HgN/A
11:30 PM77 °FClear.1 mph39%29.74 "HgN/A
Weather by CustomWeather, © 2014

See weather overviewHow to use our weather pages